Regional Weather Roundup
Issued by NWS Upton, NY

Current Version | Previous Version | Graphics & Text | Print | Product List | Glossary Off
Versions: 1 2 3 4 5 6 7 8 9 10 11 12 13 14 15 16 17 18 19 20 21 22 23 24 25 26 27 28 29 30 31 32 33 34 35 36 37 38 39 40 41 42 43 44 45 46 47 48 49 50

000
ASUS41 KOKX 212305
RWROKX

REGIONAL WEATHER ROUNDUP
NATIONAL WEATHER SERVICE NEW YORK NY
700 PM EDT MON JUL 21 2014

NOTE: "FAIR" INDICATES FEW OR NO CLOUDS BELOW 12,000 FEET WITH NO
SIGNIFICANT WEATHER AND/OR OBSTRUCTIONS TO VISIBILITY.

NYZ071-072-176-178-NJZ106-104-220000-
NEW YORK CITY METRO AREA


CITY           SKY/WX    TMP DP  RH WIND       PRES   REMARKS
CENTRAL PARK   CLOUDY    78  62  57 MISG      30.18R
LAGUARDIA APRT PTSUNNY   78  62  57 S13       30.15R
KENNEDY INTL   PTSUNNY   76  64  66 S10       30.17S
NEWARK/LIBERTY PTSUNNY   79  64  60 S9        30.15R
BRNX BOT. GARD   N/A     77  63  61 E6        30.18R
TETERBORO      PTSUNNY   82  62  50 S9        30.14R
$$

NYZ177-179-078>081-220000-
LONG ISLAND NEW YORK

CITY           SKY/WX    TMP DP  RH WIND       PRES   REMARKS
FARMINGDALE    CLOUDY    72  63  73 S10       30.18R
ISLIP          MOSUNNY   73  62  68 S7        30.16R
SHIRLEY        SUNNY     72  64  76 SW9       30.18R
WESTHAMPTON    SUNNY     72  61  68 SW7       30.19R
MONTAUK POINT    N/A     72  63  73 VRB3      30.19R
$$

NYZ052-065-067-220000-
HUDSON VALLEY

CITY           SKY/WX    TMP DP  RH WIND       PRES   REMARKS
WHITE PLAINS   MOSUNNY   77  62  59 SE9       30.16R
NEWBURGH       PTSUNNY   81  66  61 VRB6      30.16R
MONTGOMERY     PTSUNNY   80  64  58 SW6       30.14R
POUGHKEEPSIE   CLOUDY    82  62  50 S3        30.13R
ALBANY         PTSUNNY   81  62  52 S10       30.12S
$$

NJZ001-105-106-008-010-013-015-019>022-104-220000-
NEW JERSEY

CITY           SKY/WX    TMP DP  RH WIND       PRES   REMARKS
NEWARK/LIBERTY PTSUNNY   79  64  60 S9        30.15R
TETERBORO      PTSUNNY   82  62  50 S9        30.14R
CALDWELL       PTSUNNY   82  62  50 SW5       30.15R
MORRISTOWN     NOT AVBL
SOMERVILLE     PTSUNNY   80  65  59 S3        30.13S
LINDEN         MOCLDY    82  64  54 S8        30.16S
SUSSEX         PTSUNNY   83  64  52 SW5       30.16S
ANDOVER          N/A     78  63  59 SW7       30.17R
TRENTON        PTSUNNY   81  62  52 S6        30.15S
MILLVILLE      MOSUNNY   76  60  57 SE9       30.18S
ATLANTIC CITY  MOSUNNY   75  62  64 S8        30.19S
WRIGHTSTOWN    SUNNY     78  66  66 S10G18    30.14S
TOMS RIVER     MOSUNNY   75  63  64 S6        30.18S
BELMAR         MOSUNNY   75  63  64 S8        30.17F
$$

PAZ047>061-062-071-220000-
EASTERN PENNSYLVANIA

CITY           SKY/WX    TMP DP  RH WIND       PRES   REMARKS
PHILADELPHIA   PTSUNNY   82  64  54 S12       30.15S
ALLENTOWN      PTSUNNY   81  64  56 VRB3      30.16S
SCRANTON       PTSUNNY   81  63  54 SW10      30.16S
$$

CTZ002-004>006-009-010-012-RIZ004-006-007-MAZ004-011-015-220000-
SOUTHERN NEW ENGLAND
 IN CT

CITY           SKY/WX    TMP DP  RH WIND       PRES   REMARKS
BRADLEY INTL   PTSUNNY   81  59  47 S8        30.12S
HARTFORD       MOSUNNY   78  64  61 S3        30.13R
DANBURY        MOSUNNY   77  63  61 S7        30.17R
WTRBRY/OXFORD  MOSUNNY   77  64  65 S8        30.20R
BRIDGEPORT     SUNNY     78  62  57 S6        30.16R
MERIDEN        SUNNY     78  60  53 S8        30.15R
NEW HAVEN      SUNNY     78  61  55 S5        30.16R
CHESTER        FAIR      75  61  60 SW3       30.18R
GROTON         SUNNY     70  63  78 S5        30.16R
WILLIMANTIC    SUNNY     80  57  45 SE3       30.15R

 IN RI

CITY           SKY/WX    TMP DP  RH WIND       PRES   REMARKS
PROVIDENCE     MOSUNNY   77  61  57 S6        30.16R
BLOCK ISLAND   SUNNY     72  61  68 CALM      30.17S
WESTERLY       SUNNY     72  63  73 S5        30.18R

 IN MA

CITY           SKY/WX    TMP DP  RH WIND       PRES   REMARKS
BOSTON         MOSUNNY   66  61  84 E5        30.16S
WORCESTER      MOSUNNY   76  56  49 VRB5      30.18R
WESTFIELD      MOSUNNY   79  62  56 S5        30.13S
PROVINCETOWN   MOSUNNY   66  63  88 N3        30.17R
NANTUCKET      CLOUDY    68  64  87 NE9       30.15R
$$

ANZ330-335-338-340-345-350-353-355-220000-
COASTAL MARINE OBSERVATIONS


STATION/POSITION TIME  SKY/WX   TEMP    WIND        PRES    VSBY  WAVE
                                AIR SEA DIR/SP/G                  HT/PER
                 (UTC)          (F)     (DEG/KT/KT) (MB)    (MI)  (FT/S)
NY HARB ENTRANCE NOT AVBL
4S FIRE IS       NOT AVBL
23SW MTP         2200            72 71              1020.8          3/ 7
HUDSON CANYON    2300            71 73  320/  2/  4 1021.7          3/ 8
EXECUTION ROCKS  2300            79 72  180/ 10/ 16   N/A
WESTERN LI SOUND 2300            77     170/ 12/ 12   N/A           0
CENTRAL LI SOUND 2300            75 73  190/  6/ 12   N/A           0
EASTERN LI SOUND 2200            68 66  150/  4/  4   N/A
ROBBINS REEF     2300            73     160/ 14/ 15   N/A
$$


>>>>>>>>>>>>>>>>>>>>>>>>>>>> KEY <<<<<<<<<<<<<<<<<<<<<<<<<<<
>                                                          <
>     SKY/WX - SKY CONDITION/PRESENT WEATHER               <
>     TMP    - TEMPERATURE IN FAHRENHEIT                   <
>     DP     - DEWPOINT IN FAHRENHEIT                      <
>     RH     - RELATIVE HUMIDITY IN PERCENT                <
>     WIND   - DIRECTION AND SPEED IN MPH                  <
>     PRES   - MEAN SEA LEVEL PRESSURE IN INCHES OF HG     <
>     WCI    - WIND CHILL INDEX                            <
>     VSB    - VISIBILITY IN MILES                         <
>     HX     - HEAT INDEX                                  <
>     TC     - TEMPERATURE IN CELSIUS                      <
>     VRB    - VARIABLE WIND DIRECTION                     <
>                                                          <
>>>>>>>>>>>>>>>>>>>>>>>>>>>> KEY <<<<<<<<<<<<<<<<<<<<<<<<<<<




USA.gov is the U.S. government's official web portal to all federal, state and local government web resources and services.